Regional Weather Roundup
Issued by NWS

Home | Current Version | Previous Version | Graphics & Text | Print | Product List | Glossary On
Versions: 1 2 3 4 5 6 7 8 9 10 11 12 13 14 15 16 17 18 19 20 21 22 23 24 25 26 27
000
ASUS45 KCYS 241610
RWRWY

WYOMING REGIONAL WEATHER ROUNDUP
NATIONAL WEATHER SERVICE CHEYENNE WY
1000 AM MDT TUE APR 24 2018

NOTE:  "FAIR" INDICATES FEW OR NO CLOUDS BELOW 12,000 FEET
WITH NO SIGNIFICANT WEATHER AND/OR OBSTRUCTIONS TO VISIBILITY.

WYZ001-241700-
YELLOWSTONE NATIONAL PARK

CITY           SKY/WX    TMP DP  RH WIND       PRES   REMARKS
LK YELLOWSTONE   N/A     28  15  58 E5        30.47R WCI  23
W YELLOWSTONE  NOT AVBL

$$
WYZ002>013-054>058-071-098>099-241700-
NORTHERN WYOMING

CITY           SKY/WX    TMP DP  RH WIND       PRES   REMARKS
JACKSON        CLOUDY    38  20  48 N14       30.42S WCI  30
CODY           FAIR      41  23  48 E7        30.51S
GREYBULL       FAIR      40  33  76 VRB5      30.51F
WORLAND        FAIR      39  32  76 CALM      30.51S
SHERIDAN       PTSUNNY   46  28  49 N5        30.51S
BUFFALO        CLOUDY    40  23  50 VRB3      30.50S
GILLETTE       FLURRIES  36  32  85 NW9       30.50R WCI  29
HULETT         CLOUDY    36  32  87 N10       30.50S WCI  28
NEWCASTLE      PTSUNNY   36  27  69 N14G22    30.48R WCI  27

$$
WYZ014>020-022>026-101>103-241700-
CENTRAL WYOMING

CITY           SKY/WX    TMP DP  RH WIND       PRES   REMARKS
BIG PINEY      CLOUDY    35  22  58 SW9       30.43R WCI  28
PINEDALE       FLURRIES  32  25  74 W9        30.44R WCI  24
DUBOIS         CLOUDY    32  25  74 SE7       30.44S WCI  26
LANDER         CLOUDY    34  25  69 VRB5      30.49S WCI  30
RIVERTON       CLOUDY    37  21  52 N10       30.49S WCI  30
CASPER         LGT SNOW  32  30  92 NE8       30.49S FOG     WCI  25
DOUGLAS        CLOUDY    35  26  69 N15       30.49R WCI  25

$$
WYZ021-027>030-104>119-241700-
SOUTHERN WYOMING

CITY           SKY/WX    TMP DP  RH WIND       PRES   REMARKS
EVANSTON       FAIR      38  26  62 NE12G22   30.37S WCI  30
KEMMERER       CLOUDY    34  23  64 E17G23    30.41S WCI  23
ROCK SPRINGS   CLOUDY    36  21  54 E23G30    30.42S WCI  24
DIXON          FAIR      42  23  46 N13       30.37F
RAWLINS        CLOUDY    33  22  63 NE13      30.43S WCI  24
SARATOGA       CLOUDY    32  21  64 N9        30.41S WCI  24
LARAMIE        CLOUDY    30  22  72 N15       30.39R WCI  19
CHEYENNE       CLOUDY    30  26  85 N20G33    30.41R WCI  17
TORRINGTON     CLOUDY    38  29  70 N13G23    30.45R WCI  30
PINE BLUFFS    CLOUDY    32  32 100 N22G28    30.43R WCI  19

$$




USA.gov is the U.S. government's official web portal to all federal, state and local government web resources and services.